Weather History for KHSE - November, 2011

Change the Weather History Date:

Wednesday, November 30, 2011

  Actual Average Record
Temperature  
Mean Temperature 49 °F 54 °F  
Max Temperature 52 °F 60 °F 77 °F (1991)
Min Temperature 45 °F 47 °F 26 °F (1929)
Degree Days  
Heating Degree Days 16 12  
Month to date heating degree days 199 242  
Since 1 July heating degree days 258 318  
Cooling Degree Days 0 0  
Month to date cooling degree days 9 21  
Year to date cooling degree days 2378 1711  
Moisture  
Dew Point 38 °F    
Average Humidity 65    
Maximum Humidity 77    
Minimum Humidity 52    
Precipitation  
Precipitation 0.00 in 0.15 in 1.79 in (1997)
Month to date precipitation 6.08 4.95  
Year to date precipitation 60.15 53.77  
Snow  
Snow 0.00 in - - ()
Month to date snowfall 0.0  
Since 1 July snowfall 0.0  
Snow Depth 0.00 in    
Sea Level Pressure  
Sea Level Pressure 29.93 in    
Wind  
Wind Speed 11 mph (West)    
Max Wind Speed 21 mph    
Max Gust Speed 31 mph    
Visibility 10 miles    
Events      
T = Trace of Precipitation, MM = Missing Value Source: NWS Daily Summary

Daily Weather History Graph

Daily Weather History Graph

Search for Another Location

Airport or City:

Trip Planner

Search our weather history database for the weather conditions in past years. The results will help you decide how hot, cold, wet, or windy it might be!

Date:

Astronomy

Nov. 30, 2011 Rise Set
Actual Time 6:51 AM EST 4:50 PM EST
Civil Twilight 6:23 AM EST 5:18 PM EST
Nautical Twilight 5:52 AM EST 5:49 PM EST
Astronomical Twilight 5:21 AM EST 6:20 PM EST
Moon 11:14 AM EST (11/30) 10:37 PM EST (11/30)
Length of Visible Light 10h 54m
Length of Day
9h 58m
Waxing Crescent, 33% of the Moon is Illuminated
Nov 30
Waxing Crescent
Dec 2
First Quarter
Dec 10
Full
Dec 17
Last Quarter
Dec 24
New

Hourly Weather History & Observations

Time (EST) Temp. Windchill Dew Point Humidity Pressure Visibility Wind Dir Wind Speed Gust Speed Precip Events Conditions
12:51 AM 50.0 °F - 41.0 °F 71% 29.85 in 10.0 mi West 18.4 mph 29.9 mph N/A   Clear
1:40 AM 48.2 °F - 42.8 °F 82% 29.87 in 10.0 mi West 11.5 mph 18.4 mph N/A   Mostly Cloudy
1:51 AM 48.9 °F - 41.0 °F 74% 29.87 in 10.0 mi West 11.5 mph 24.2 mph N/A   Mostly Cloudy
1:58 AM 48.2 °F - 41.0 °F 76% 29.87 in 10.0 mi West 10.4 mph 24.2 mph N/A   Mostly Cloudy
2:09 AM 48.2 °F - 41.0 °F 76% 29.88 in 10.0 mi West 15.0 mph 20.7 mph N/A   Mostly Cloudy
2:42 AM 46.4 °F 41.1 °F 39.2 °F 76% 29.88 in 10.0 mi West 11.5 mph 20.7 mph N/A   Scattered Clouds
2:49 AM 46.4 °F 41.1 °F 39.2 °F 76% 29.88 in 10.0 mi West 11.5 mph 20.7 mph N/A   Mostly Cloudy
2:51 AM 46.9 °F - 39.9 °F 77% 29.88 in 10.0 mi West 12.7 mph 21.9 mph N/A   Mostly Cloudy
3:02 AM 46.4 °F 40.7 °F 39.2 °F 76% 29.88 in 10.0 mi West 12.7 mph 20.7 mph N/A   Scattered Clouds
3:51 AM 46.0 °F 40.6 °F 39.0 °F 76% 29.89 in 10.0 mi West 11.5 mph 25.3 mph N/A   Partly Cloudy
4:51 AM 46.0 °F 40.2 °F 37.0 °F 71% 29.90 in 10.0 mi West 12.7 mph 21.9 mph N/A   Scattered Clouds
5:02 AM 44.6 °F 38.1 °F 37.4 °F 76% 29.90 in 10.0 mi West 13.8 mph 23.0 mph N/A   Mostly Cloudy
5:10 AM 44.6 °F 38.1 °F 37.4 °F 76% 29.90 in 10.0 mi West 13.8 mph 23.0 mph N/A   Scattered Clouds
5:51 AM 45.0 °F 38.2 °F 37.9 °F 76% 29.92 in 10.0 mi West 15.0 mph 21.9 mph N/A   Partly Cloudy
6:39 AM 44.6 °F 39.2 °F 37.4 °F 76% 29.93 in 10.0 mi West 10.4 mph 17.3 mph N/A   Mostly Cloudy
6:51 AM 45.0 °F 39.7 °F 37.9 °F 76% 29.93 in 10.0 mi West 10.4 mph 19.6 mph N/A   Scattered Clouds
7:51 AM 45.0 °F 40.1 °F 37.9 °F 76% 29.94 in 10.0 mi West 9.2 mph - N/A   Partly Cloudy
8:25 AM 46.4 °F 41.9 °F 39.2 °F 76% 29.95 in 10.0 mi West 9.2 mph - N/A   Mostly Cloudy
8:33 AM 46.4 °F 41.1 °F 39.2 °F 76% 29.95 in 10.0 mi West 11.5 mph - N/A   Partly Cloudy
8:51 AM 46.9 °F - 39.0 °F 74% 29.95 in 10.0 mi West 9.2 mph - N/A   Clear
9:51 AM 48.0 °F - 39.9 °F 74% 29.96 in 10.0 mi West 9.2 mph - N/A   Clear
10:51 AM 48.9 °F - 41.0 °F 74% 29.94 in 10.0 mi West 11.5 mph 19.6 mph N/A   Mostly Cloudy
11:02 AM 48.2 °F - 39.2 °F 71% 29.94 in 10.0 mi West 10.4 mph 16.1 mph N/A   Scattered Clouds
11:51 AM 50.0 °F - 41.0 °F 71% 29.92 in 10.0 mi West 11.5 mph 18.4 mph N/A   Partly Cloudy
12:51 PM 52.0 °F - 39.0 °F 61% 29.90 in 10.0 mi West 10.4 mph 18.4 mph N/A   Clear
1:51 PM 52.0 °F - 37.9 °F 59% 29.90 in 10.0 mi West 10.4 mph 19.6 mph N/A   Clear
2:51 PM 52.0 °F - 37.0 °F 57% 29.90 in 10.0 mi West 11.5 mph 18.4 mph N/A   Clear
3:51 PM 52.0 °F - 37.0 °F 57% 29.92 in 10.0 mi WNW 9.2 mph 19.6 mph N/A   Clear
4:51 PM 50.0 °F - 36.0 °F 59% 29.94 in 10.0 mi NW 9.2 mph 16.1 mph N/A   Clear
5:51 PM 50.0 °F - 35.1 °F 57% 29.97 in 10.0 mi NW 10.4 mph 18.4 mph N/A   Partly Cloudy
6:51 PM 50.0 °F - 35.1 °F 57% 30.00 in 10.0 mi NNW 11.5 mph 20.7 mph N/A   Scattered Clouds
7:51 PM 50.0 °F - 34.0 °F 54% 30.01 in 10.0 mi NW 8.1 mph 16.1 mph N/A   Clear
8:51 PM 48.9 °F - 35.1 °F 59% 30.02 in 10.0 mi NNW 8.1 mph - N/A   Clear
9:51 PM 50.0 °F - 34.0 °F 54% 30.03 in 10.0 mi NW 10.4 mph 18.4 mph N/A   Clear
10:51 PM 50.0 °F - 34.0 °F 54% 30.05 in 10.0 mi NNW 8.1 mph - N/A   Clear
11:51 PM 50.0 °F - 34.0 °F 54% 30.06 in 10.0 mi NNW 8.1 mph 16.1 mph N/A   Clear